Weather History for Kelso-Longview, WA

Change the Weather History Date:

Sunday, September 22, 2013

  Actual Average Record
Temperature  
Mean Temperature 58 °F -  
Max Temperature 60 °F 69 °F 82 °F (2001)
Min Temperature 55 °F 46 °F 37 °F (2005)
Degree Days  
Heating Degree Days 8    
Growing Degree Days 8 (Base 50)    
Moisture  
Dew Point 52 °F    
Average Humidity 83    
Maximum Humidity 88    
Minimum Humidity 72    
Precipitation  
Precipitation 0.78 in - - ()
Sea Level Pressure  
Sea Level Pressure 29.76 in    
Wind  
Wind Speed 9 mph (SSE)    
Max Wind Speed 21 mph    
Max Gust Speed 29 mph    
Visibility 9 miles    
Events      
Averages and records for this station are not official NWS values.
T = Trace of Precipitation, MM = Missing Value Source: NWS Daily Summary

Daily Weather History Graph

Daily Weather History Graph

Search for Another Location

Airport:

Trip Planner

Search our weather history database for the weather conditions in past years. The results will help you decide how hot, cold, wet, or windy it might be!

Date:

Astronomy

Sep. 22, 2013 Rise Set
Actual Time 6:58 AM PDT 7:08 PM PDT
Civil Twilight 6:29 AM PDT 7:38 PM PDT
Nautical Twilight 5:53 AM PDT 8:13 PM PDT
Astronomical Twilight 5:17 AM PDT 8:49 PM PDT
Moon 8:48 PM PDT (9/22) 10:38 AM PDT (9/22)
Length of Visible Light 13h 09m
Length of Day
12h 09m
Waning Gibbous, 88% of the Moon is Illuminated
Sep 22
Waning Gibbous
Sep 26
Last Quarter
Oct 4
New
Oct 11
First Quarter
Oct 18
Full

Hourly Weather History & Observations

Time (PDT) Temp. Dew Point Humidity Pressure Visibility Wind Dir Wind Speed Gust Speed Precip Events Conditions
12:15 AM 57.2 °F 53.6 °F 88% 29.79 in 10.0 mi South 5.8 mph - N/A   Mostly Cloudy
12:35 AM 57.2 °F 53.6 °F 88% 29.80 in 10.0 mi SE 4.6 mph - N/A   Overcast
12:55 AM 57.2 °F 53.6 °F 88% 29.79 in 10.0 mi SE 4.6 mph - N/A   Overcast
1:15 AM 57.2 °F 53.6 °F 88% 29.79 in 10.0 mi South 4.6 mph - N/A   Mostly Cloudy
1:35 AM 57.2 °F 53.6 °F 88% 29.80 in 7.0 mi SSE 4.6 mph - N/A   Mostly Cloudy
1:55 AM 57.2 °F 53.6 °F 88% 29.80 in 6.0 mi SE 4.6 mph - 0.01 in   Mostly Cloudy
2:15 AM 57.2 °F 53.6 °F 88% 29.80 in 10.0 mi SSE 5.8 mph - N/A   Overcast
2:35 AM 57.2 °F 53.6 °F 88% 29.79 in 10.0 mi SSE 6.9 mph - N/A   Mostly Cloudy
2:55 AM 57.2 °F 51.8 °F 82% 29.79 in 10.0 mi SSE 8.1 mph - N/A   Overcast
3:15 AM 57.2 °F 53.6 °F 88% 29.79 in 10.0 mi SSE 9.2 mph - N/A   Overcast
3:35 AM 57.2 °F 51.8 °F 82% 29.79 in 10.0 mi SSE 9.2 mph - N/A   Overcast
3:55 AM 57.2 °F 51.8 °F 82% 29.79 in 10.0 mi SE 8.1 mph - N/A   Overcast
4:15 AM 57.2 °F 51.8 °F 82% 29.79 in 10.0 mi SSE 6.9 mph - N/A   Overcast
4:35 AM 57.2 °F 51.8 °F 82% 29.78 in 10.0 mi SE 9.2 mph - N/A   Mostly Cloudy
4:55 AM 57.2 °F 51.8 °F 82% 29.78 in 10.0 mi SE 8.1 mph - N/A   Mostly Cloudy
5:15 AM 57.2 °F 51.8 °F 82% 29.78 in 10.0 mi SSE 10.4 mph - N/A   Mostly Cloudy
5:35 AM 57.2 °F 50.0 °F 77% 29.77 in 10.0 mi SE 10.4 mph 16.1 mph N/A   Mostly Cloudy
5:55 AM 57.2 °F 50.0 °F 77% 29.77 in 10.0 mi SSE 10.4 mph - N/A   Overcast
6:15 AM 57.2 °F 50.0 °F 77% 29.78 in 10.0 mi SSE 9.2 mph - N/A   Overcast
6:35 AM 57.2 °F 51.8 °F 82% 29.78 in 10.0 mi SSE 10.4 mph 17.3 mph N/A   Overcast
6:55 AM 57.2 °F 51.8 °F 82% 29.78 in 10.0 mi SE 11.5 mph 16.1 mph N/A   Overcast
7:15 AM 57.2 °F 51.8 °F 82% 29.77 in 10.0 mi SSE 12.7 mph 17.3 mph N/A   Overcast
7:35 AM 55.4 °F 51.8 °F 88% 29.77 in 10.0 mi SSE 11.5 mph 16.1 mph N/A   Overcast
7:55 AM 55.4 °F 51.8 °F 88% 29.77 in 9.0 mi SSE 11.5 mph 16.1 mph 0.02 in   Overcast
8:15 AM 55.4 °F 51.8 °F 88% 29.76 in 10.0 mi SSE 10.4 mph 16.1 mph 0.01 in   Overcast
8:35 AM 57.2 °F 51.8 °F 82% 29.76 in 10.0 mi SSE 11.5 mph 17.3 mph 0.01 in   Overcast
8:55 AM 57.2 °F 51.8 °F 82% 29.75 in 10.0 mi SE 10.4 mph 16.1 mph 0.01 in   Overcast
9:15 AM 57.2 °F 51.8 °F 82% 29.74 in 10.0 mi SSE 16.1 mph 20.7 mph N/A   Overcast
9:35 AM 57.2 °F 50.0 °F 77% 29.74 in 10.0 mi SSE 10.4 mph 25.3 mph N/A   Overcast
9:55 AM 57.2 °F 51.8 °F 82% 29.73 in 10.0 mi SSE 12.7 mph 26.5 mph N/A   Mostly Cloudy
10:15 AM 57.2 °F 51.8 °F 82% 29.72 in 10.0 mi SSE 15.0 mph 21.9 mph N/A   Overcast
10:35 AM 59.0 °F 50.0 °F 72% 29.70 in 10.0 mi SSE 18.4 mph 26.5 mph N/A   Mostly Cloudy
10:55 AM 60.8 °F 51.8 °F 72% 29.70 in 10.0 mi SSE 16.1 mph 26.5 mph N/A   Overcast
11:15 AM 59.0 °F 50.0 °F 72% 29.69 in 10.0 mi SSE 16.1 mph 27.6 mph N/A   Overcast
11:35 AM 59.0 °F 50.0 °F 72% 29.68 in 10.0 mi SSE 17.3 mph 27.6 mph N/A   Overcast
11:55 AM 59.0 °F 50.0 °F 72% 29.67 in 10.0 mi SSE 17.3 mph 25.3 mph N/A   Overcast
12:15 PM 57.2 °F 50.0 °F 77% 29.68 in 10.0 mi SSE 20.7 mph 28.8 mph N/A   Overcast
12:35 PM 57.2 °F 51.8 °F 82% 29.65 in 6.0 mi SE 17.3 mph 27.6 mph 0.05 in   Overcast
12:55 PM 57.2 °F 51.8 °F 82% 29.65 in 9.0 mi SSE 17.3 mph 27.6 mph 0.09 in   Mostly Cloudy
1:15 PM 57.2 °F 51.8 °F 82% 29.67 in 10.0 mi SSE 17.3 mph 26.5 mph 0.02 in   Overcast
1:35 PM 57.2 °F 51.8 °F 82% 29.67 in 6.0 mi SSE 17.3 mph 25.3 mph 0.06 in   Overcast
1:55 PM 57.2 °F 51.8 °F 82% 29.69 in 7.0 mi SSE 12.7 mph 18.4 mph 0.11 in   Overcast
2:15 PM 55.4 °F 51.8 °F 88% 29.69 in 5.0 mi SSE 15.0 mph 23.0 mph 0.07 in   Overcast
2:35 PM 57.2 °F 53.6 °F 88% 29.69 in 9.0 mi SSE 13.8 mph 24.2 mph 0.11 in   Mostly Cloudy
2:55 PM 57.2 °F 53.6 °F 88% 29.69 in 7.0 mi SSE 13.8 mph 20.7 mph 0.14 in   Mostly Cloudy
3:15 PM 57.2 °F 53.6 °F 88% 29.69 in 10.0 mi SSE 15.0 mph 20.7 mph 0.03 in   Overcast
3:35 PM 57.2 °F 51.8 °F 82% 29.71 in 3.0 mi SE 5.8 mph - 0.17 in   Overcast
3:55 PM 57.2 °F 53.6 °F 88% 29.71 in 8.0 mi SSE 10.4 mph - 0.20 in   Overcast
4:15 PM 57.2 °F 53.6 °F 88% 29.71 in 10.0 mi SSE 10.4 mph - N/A   Overcast
4:35 PM 59.0 °F 53.6 °F 82% 29.72 in 10.0 mi SSE 10.4 mph - 0.01 in   Mostly Cloudy
4:55 PM 60.8 °F 53.6 °F 77% 29.73 in 10.0 mi SSE 10.4 mph 17.3 mph 0.01 in   Mostly Cloudy
5:15 PM 59.0 °F 53.6 °F 82% 29.73 in 10.0 mi SSE 10.4 mph - N/A   Overcast
5:35 PM 60.8 °F 53.6 °F 77% 29.73 in 10.0 mi SSE 6.9 mph - N/A   Scattered Clouds
5:55 PM 60.8 °F 53.6 °F 77% 29.74 in 10.0 mi SE 6.9 mph - N/A   Mostly Cloudy
6:15 PM 59.0 °F 53.6 °F 82% 29.75 in 10.0 mi SSE 5.8 mph - N/A   Overcast
6:35 PM 59.0 °F 53.6 °F 82% 29.76 in 10.0 mi SSE 5.8 mph - N/A   Overcast
6:55 PM 59.0 °F 53.6 °F 82% 29.76 in 10.0 mi SSE 9.2 mph - N/A   Mostly Cloudy
7:15 PM 57.2 °F 53.6 °F 88% 29.77 in 10.0 mi SE 6.9 mph - N/A   Scattered Clouds
7:35 PM 59.0 °F 53.6 °F 82% 29.78 in 10.0 mi SE 9.2 mph - N/A   Mostly Cloudy
7:55 PM 57.2 °F 53.6 °F 88% 29.79 in 10.0 mi SE 5.8 mph - N/A   Mostly Cloudy
8:15 PM 57.2 °F 53.6 °F 88% 29.79 in 10.0 mi SE 4.6 mph - N/A   Overcast
8:35 PM 57.2 °F 53.6 °F 88% 29.81 in 10.0 mi SE 5.8 mph - N/A   Mostly Cloudy
8:55 PM 57.2 °F 53.6 °F 88% 29.81 in 10.0 mi SE 5.8 mph - N/A   Mostly Cloudy
9:15 PM 57.2 °F 53.6 °F 88% 29.82 in 10.0 mi SE 3.5 mph - N/A   Overcast
9:35 PM 57.2 °F 53.6 °F 88% 29.83 in 8.0 mi Calm Calm - 0.05 in   Overcast
9:55 PM 57.2 °F 53.6 °F 88% 29.84 in 5.0 mi SSE 4.6 mph - 0.10 in   Overcast
10:15 PM 57.2 °F 53.6 °F 88% 29.84 in 5.0 mi Calm Calm - 0.09 in   Mostly Cloudy
10:35 PM 57.2 °F 53.6 °F 88% 29.84 in 10.0 mi SSE 4.6 mph - 0.09 in   Overcast
10:55 PM 57.2 °F 53.6 °F 88% 29.85 in 10.0 mi ESE 4.6 mph - 0.09 in   Overcast
11:15 PM 57.2 °F 53.6 °F 88% 29.86 in 10.0 mi SE 5.8 mph - N/A   Overcast
11:35 PM 55.4 °F 51.8 °F 88% 29.86 in 10.0 mi SE 8.1 mph - N/A   Scattered Clouds
11:55 PM 55.4 °F 51.8 °F 88% 29.87 in 10.0 mi ESE 8.1 mph - N/A   Mostly Cloudy